Cleveland, OH

6:50 PM EDT on September 27, 2016 (GMT -0400)
Cleveland-Hopkins International

Weather History for KCLE - December, 2014

Change the Weather History Date:

Wednesday, December 3, 2014

  Actual Average Record
Temperature  
Mean Temperature 33 °F 37 °F  
Max Temperature 39 °F 43 °F 77 °F (1982)
Min Temperature 26 °F 31 °F -7 °F (1976)
Degree Days  
Heating Degree Days 32 28  
Month to date heating degree days 92 83  
Since 1 July heating degree days 1426 1178  
Cooling Degree Days 0 0  
Month to date cooling degree days 0 0  
Year to date cooling degree days 657 817  
Moisture  
Dew Point 27 °F    
Average Humidity 74    
Maximum Humidity 96    
Minimum Humidity 52    
Precipitation  
Precipitation T in 0.10 in 1.33 in (1990)
Month to date precipitation 0.05 0.31  
Year to date precipitation 42.15 36.35  
Snow  
Snow T in 0.30 in - ()
Month to date snowfall T 0.9  
Since 1 July snowfall 19.4 5.4  
Snow Depth 0.00 in    
Sea Level Pressure  
Sea Level Pressure 30.18 in    
Wind  
Wind Speed 13 mph (SW)    
Max Wind Speed 26 mph    
Max Gust Speed 34 mph    
Visibility 8 miles    
Events Rain    
T = Trace of Precipitation, MM = Missing Value Source: NWS Daily Summary

Daily Weather History Graph

Daily Weather History Graph

Search for Another Location

Airport or City:

Trip Planner

Search our weather history database for the weather conditions in past years. The results will help you decide how hot, cold, wet, or windy it might be!

Date:

Astronomy

Dec. 03, 2014 Rise Set
Actual Time 7:36 AM EST 4:58 PM EST
Civil Twilight 7:05 AM EST 5:29 PM EST
Nautical Twilight 6:30 AM EST 6:03 PM EST
Astronomical Twilight 5:57 AM EST 6:36 PM EST
Moon 3:19 PM EST (12/3) 4:20 AM EST (12/3)
Length of Visible Light 10h 23m
Length of Day
9h 22m
Waxing Gibbous, 91% of the Moon is Illuminated
Dec 3
Waxing Gibbous
Dec 6
Full
Dec 14
Last Quarter
Dec 21
New
Dec 28
First Quarter

Hourly Weather History & Observations

Time (EST) Temp. Windchill Dew Point Humidity Pressure Visibility Wind Dir Wind Speed Gust Speed Precip Events Conditions
12:51 AM 34.0 °F 28.0 °F 30.9 °F 89% 30.14 in 7.0 mi SW 6.9 mph - N/A   Overcast
1:13 AM 34.0 °F 28.0 °F 30.9 °F 89% 30.10 in 6.0 mi SSW 6.9 mph - N/A   Overcast
1:51 AM 34.0 °F 26.6 °F 30.9 °F 89% 30.12 in 7.0 mi SW 9.2 mph - N/A   Overcast
2:51 AM 34.0 °F 27.2 °F 30.9 °F 89% 30.12 in 7.0 mi SW 8.1 mph - N/A   Overcast
3:51 AM 35.1 °F 27.9 °F 30.9 °F 85% 30.11 in 7.0 mi SW 9.2 mph - N/A   Overcast
4:00 AM 35.1 °F 27.9 °F 30.9 °F 85% 30.09 in 7.0 mi SW 9.2 mph - N/A   Overcast
4:20 AM 35.1 °F 27.9 °F 30.9 °F 85% 30.09 in 5.0 mi SW 9.2 mph - 0.00 in   Light Drizzle
4:51 AM 34.0 °F 26.0 °F 32.0 °F 92% 30.11 in 4.0 mi SW 10.4 mph - 0.00 in   Light Drizzle
5:31 AM 34.0 °F 25.5 °F 32.0 °F 92% 30.08 in 4.0 mi SW 11.5 mph - 0.00 in   Light Drizzle
5:51 AM 34.0 °F 27.2 °F 32.0 °F 92% 30.10 in 5.0 mi SSW 8.1 mph - 0.00 in   Light Drizzle
6:00 AM 34.0 °F 28.0 °F 32.0 °F 92% 30.08 in 6.0 mi SW 6.9 mph - 0.00 in   Light Drizzle
6:16 AM 34.0 °F 27.2 °F 32.0 °F 92% 30.08 in 6.0 mi SW 8.1 mph - 0.00 in   Light Drizzle
6:33 AM 34.0 °F 26.0 °F 32.0 °F 92% 30.09 in 7.0 mi SW 10.4 mph - 0.00 in   Light Drizzle
6:51 AM 35.1 °F 27.4 °F 32.0 °F 89% 30.11 in 7.0 mi SW 10.4 mph - 0.00 in   Light Drizzle
7:51 AM 35.1 °F 26.9 °F 30.9 °F 85% 30.12 in 10.0 mi SW 11.5 mph - 0.00 in   Overcast
8:51 AM 35.1 °F 24.1 °F 30.9 °F 85% 30.14 in 6.0 mi WSW 19.6 mph - N/A   Overcast
9:51 AM 34.0 °F 22.7 °F 28.9 °F 82% 30.16 in 8.0 mi WSW 19.6 mph 27.6 mph N/A   Overcast
10:51 AM 34.0 °F 23.0 °F 28.9 °F 82% 30.17 in 7.0 mi WSW 18.4 mph 23.0 mph N/A   Overcast
11:51 AM 33.1 °F 22.6 °F 28.0 °F 82% 30.17 in 6.0 mi WSW 16.1 mph 27.6 mph N/A   Haze
12:19 PM 34.0 °F 22.7 °F 27.0 °F 75% 30.15 in 9.0 mi West 19.6 mph - N/A   Overcast
12:51 PM 35.1 °F 24.1 °F 25.0 °F 67% 30.18 in 10.0 mi WSW 19.6 mph 29.9 mph N/A   Mostly Cloudy
1:35 PM 37.0 °F 27.0 °F 25.0 °F 62% 30.15 in 10.0 mi SW 18.4 mph 27.6 mph N/A   Scattered Clouds
1:51 PM 37.9 °F 27.9 °F 26.1 °F 62% 30.17 in 10.0 mi SW 19.6 mph - N/A   Partly Cloudy
2:51 PM 39.0 °F 28.3 °F 24.1 °F 55% 30.18 in 10.0 mi WSW 24.2 mph 32.2 mph N/A   Partly Cloudy
3:51 PM 37.9 °F 27.9 °F 23.0 °F 55% 30.21 in 10.0 mi West 19.6 mph 29.9 mph N/A   Partly Cloudy
4:51 PM 37.0 °F 27.7 °F 21.9 °F 54% 30.25 in 10.0 mi West 16.1 mph - N/A   Partly Cloudy
5:51 PM 35.1 °F 26.9 °F 21.0 °F 57% 30.27 in 10.0 mi WSW 11.5 mph - N/A   Partly Cloudy
6:51 PM 32.0 °F 24.2 °F 21.0 °F 64% 30.30 in 10.0 mi WSW 9.2 mph - N/A   Clear
7:51 PM 30.9 °F 22.2 °F 19.9 °F 64% 30.32 in 10.0 mi WSW 10.4 mph - N/A   Clear
8:51 PM 28.9 °F 21.1 °F 21.0 °F 72% 30.34 in 10.0 mi SW 8.1 mph - N/A   Clear
9:51 PM 28.9 °F 20.4 °F 19.9 °F 69% 30.36 in 10.0 mi WSW 9.2 mph - N/A   Clear
10:51 PM 28.0 °F 20.0 °F 19.9 °F 72% 30.38 in 10.0 mi WSW 8.1 mph - N/A   Clear
11:51 PM 26.1 °F 18.4 °F 19.0 °F 75% 30.38 in 10.0 mi WSW 6.9 mph - N/A   Scattered Clouds